Regional Weather Roundup
Issued by NWS

Home | Current Version | Previous Version | Text Only | Print | Product List | Glossary Off
Versions: 1 2 3 4 5 6 7 8 9 10 11 12 13 14 15 16 17 18 19 20 21 22 23 24 25 26 27 28 29 30 31 32 33 34 35 36 37 38 39 40 41 42 43 44 45 46 47 48 49 50

113
ASUS43 KOAX 250002
RWRNE

WEATHER ROUNDUP FOR NEBRASKA
NATIONAL WEATHER SERVICE OMAHA NE
700 PM CDT FRI MAR 24 2017

NOTES: SATELLITE DATA IS BEING USED TO AUGMENT CLOUD COVER ABOVE
       12000 FEET.
       "FAIR" INDICATES FEW OR NO CLOUDS BELOW 12,000 FEET WITH NO
       SIGNIFICANT WEATHER AND/OR OBSTRUCTIONS TO VISIBILITY.

  * THESE STATIONS DO NOT REPORT WEATHER SUCH AS RAIN...SNOW OR FOG.

NEZ001>004-019>022-054>056-250100-
NEBRASKA PANHANDLE

CITY           SKY/WX    TMP DP  RH WIND       PRES   REMARKS
SCOTTSBLUFF    SUNNY     57  27  31 E10       30.09S
6HR MIN TEMP:  54; 6HR MAX TEMP:  61;

ALLIANCE       CLOUDY    53  27  36 NE12      30.09R
6HR MIN TEMP:  49; 6HR MAX TEMP:  58;

CHADRON        SUNNY     58  28  32 E8        30.07S
6HR MIN TEMP:  52; 6HR MAX TEMP:  61;

KIMBALL        MOSUNNY   53  31  42 NE10      30.12S
SIDNEY         PTSUNNY   53  30  41 NE14G23   30.11R
6HR MIN TEMP:  44; 6HR MAX TEMP:  55;

$$

NEZ057>060-069>072-079>082-250100-
SOUTHWEST NEBRASKA

CITY           SKY/WX    TMP DP  RH WIND       PRES   REMARKS
NORTH PLATTE   CLOUDY    46  40  79 N8        30.07S
6HR MIN TEMP:  44; 6HR MAX TEMP:  47; 6HR PCP:  0.03;

IMPERIAL       LGT RAIN  43  38  82 N12       30.10R
6HR MIN TEMP:  42; 6HR MAX TEMP:  44; 6HR PCP:  0.14;

LEXINGTON      CLOUDY    41  38  90 N15G25    30.01F
MCCOOK         CLOUDY    42  40  92 N18G25    30.02F
6HR MIN TEMP:  41; 6HR MAX TEMP:  42; 6HR PCP:  0.09;

OGALLALA       PTSUNNY   53  35  50 NE9       30.09R
$$

NEZ005>010-023>029-035>040-094-250100-
NORTH CENTRAL NEBRASKA

CITY           SKY/WX    TMP DP  RH WIND       PRES   REMARKS
VALENTINE      PTSUNNY   53  29  39 NE13      30.09R
6HR MIN TEMP:  52; 6HR MAX TEMP:  59;

AINSWORTH      CLOUDY    47  35  63 NE10      30.09R
BROKEN BOW     LGT RAIN  42  40  92 NE7       30.06R
6HR MIN TEMP:  41; 6HR MAX TEMP:  43; 6HR PCP:  0.23;

O`NEILL        CLOUDY    44  40  87 N7        30.06R
ORD            RAIN      41  38  89 N6        30.05R FOG
6HR MIN TEMP:  39; 6HR MAX TEMP:  41; 6HR PCP:  0.17;

THEDFORD       PTSUNNY   51  31  46 NE15G22   30.08R
$$

NEZ041-046>049-061>064-073>077-083>087-250100-
SOUTH CENTRAL NEBRASKA

CITY           SKY/WX    TMP DP  RH WIND       PRES   REMARKS
GRAND ISLAND   CLOUDY    40  39  97 N20G26    30.00R WCI  30
6HR MIN TEMP:  39; 6HR MAX TEMP:  40; 6HR PCP:  0.10;

AURORA         CLOUDY    40  38  95 N18       29.99R WCI  31
HASTINGS       CLOUDY    41  37  86 N20G31    29.99R
6HR MIN TEMP:  41; 6HR MAX TEMP:  42;

HEBRON         CLOUDY    43  39  88 NE23      29.93S
HOLDREGE       CLOUDY    40  38  91 N21G28    30.00R WCI  30
KEARNEY *      CLOUDY    39  36  87 N18G25    30.01R WCI  30
YORK           CLOUDY    41  39  93 NE23      29.98S
$$

NEZ011>018-030>034-042>045-250100-
NORTHEAST NEBRASKA

CITY           SKY/WX    TMP DP  RH WIND       PRES   REMARKS
NORFOLK        LGT RAIN  41  37  86 NE13G26   30.04R
6HR MIN TEMP:  39; 6HR MAX TEMP:  41; 6HR PCP:  0.09;

ALBION         RAIN      42  38  87 NE9       30.05R
BLAIR          RAIN      42  41  96 N16G25    29.97F
FREMONT        LGT RAIN  41  41  99 N7        30.01R
TEKAMAH        RAIN      42  40  92 N12       30.02R FOG
6HR MIN TEMP:  42; 6HR MAX TEMP:  44; 6HR PCP:  0.17;

WAYNE          LGT RAIN  41  40  97 NE14      30.05S
$$

NEZ050>053-065>068-078-088>093-250100-
SOUTHEAST NEBRASKA

CITY           SKY/WX    TMP DP  RH WIND       PRES   REMARKS
LINCOLN        CLOUDY    44  41  89 N18       29.96R
6HR MIN TEMP:  44; 6HR MAX TEMP:  47; 6HR PCP: TRACE;

OMAHA EPPLEY   LGT RAIN  44  39  82 N20G25    29.97S
6HR MIN TEMP:  44; 6HR MAX TEMP:  47; 6HR PCP:  0.18;

BEATRICE       CLOUDY    46  43  91 NE20G25   29.91F
FALLS CITY     CLOUDY    53  52  96 NE13      29.86R
6HR MIN TEMP:  53; 6HR MAX TEMP:  67; 6HR PCP:  0.37;

NEBRASKA CITY  RAIN      44  44  98 N18G25    29.92R
PLATTSMOUTH    LGT RAIN  44  41  90 N13G21    29.95R
$$

NEZ044-045-051>053-067-250100-
OMAHA AREA

CITY           SKY/WX    TMP DP  RH WIND       PRES   REMARKS
OMAHA EPPLEY   LGT RAIN  44  39  82 N20G25    29.97S
6HR MIN TEMP:  44; 6HR MAX TEMP:  47; 6HR PCP:  0.18;

BLAIR          RAIN      42  41  96 N16G25    29.97F
FREMONT        LGT RAIN  41  41  99 N7        30.01R
MILLARD        LGT RAIN  45  43  91 N7        29.96F
OFFUTT AFB     LGT RAIN  44  41  91 N13G22    29.94F
PLATTSMOUTH    LGT RAIN  44  41  90 N13G21    29.95R
WAHOO          CLOUDY    42  40  93 N16       29.99R
$$




USA.gov is the U.S. government's official web portal to all federal, state and local government web resources and services.